EW2795 Weather Reports


Display with metric or nautical units.
time (UTC)temp
F
wind
direction
speed
MPH
gust
MPH
rain 1hr
in
rain 24hr
in
rain mn
in
humidity
%
barometer
mb
20260901151546 73 215 4.0 0.0 0.00 0.00 0.63 95 1016.2
20260901150044 74 264 1.0 0.0 0.00 0.00 0.44 94 1017.1
20260901144532 75 146 1.0 0.0 0.00 0.00 0.28 92 1016.6
20260901143018 76 204 4.0 0.0 0.00 0.00 0.12 90 1016.1
20260901141508 77 207 2.0 0.0 0.00 0.00 0.06 89 1015.4
20260901140054 79 209 2.0 0.0 0.00 0.00 0.01 85 1015.0
20260901134540 80 232 2.0 0.0 0.00 0.00 0.00 83 1015.0
20260901133032 80 245 3.0 0.0 0.00 0.00 0.00 83 1014.7
20260901131528 79 219 4.0 0.0 0.00 0.00 0.00 86 1014.8
20260901130016 78 227 4.0 0.0 0.00 0.00 0.00 86 1014.9
20260901124556 77 261 3.0 0.0 0.00 0.00 0.00 88 1015.0
20260901123051 77 214 4.0 0.0 0.00 0.00 0.00 88 1015.0
20260901121541 76 209 3.0 0.0 0.00 0.00 0.00 89 1015.0
20260901120022 75 209 3.0 0.0 0.00 0.00 0.00 90 1014.9
20260901114512 75 210 2.0 0.0 0.00 0.00 0.00 90 1014.8
20260901113004 75 211 2.0 0.0 0.00 0.00 0.00 91 1014.7
20260901111603 74 209 2.0 0.0 0.00 0.00 0.00 91 1014.6
20260901110051 74 209 3.0 0.0 0.00 0.00 0.00 91 1014.5
20260901104541 74 215 2.0 0.0 0.00 0.00 0.00 92 1014.1
20260901103027 74 200 2.0 0.0 0.00 0.00 0.00 93 1014.1
20260901101517 73 199 1.0 0.0 0.00 0.00 0.00 94 1014.0
20260901100015 73 199 0.0 0.0 0.00 0.00 0.00 94 1014.0
20260901094556 73 199 0.0 0.0 0.00 0.00 0.00 94 1014.1
20260901093049 73 199 1.0 0.0 0.00 0.00 0.00 94 1014.0
20260901091532 72 197 1.0 0.0 0.00 0.00 0.00 95 1014.0
20260901090023 72 196 0.0 0.0 0.00 0.00 0.00 95 1014.0
20260901084515 72 197 0.0 0.0 0.00 0.00 0.00 95 1014.0
20260901083013 71 197 0.0 0.0 0.00 0.00 0.00 95 1013.9
20260901081505 71 196 0.0 0.0 0.00 0.00 0.00 95 1013.9
20260901080101 71 197 0.0 0.0 0.00 0.00 0.00 94 1014.0
20260901074547 72 197 0.0 0.0 0.00 0.00 0.00 94 1013.8
20260901073037 72 197 0.0 0.0 0.00 0.00 0.00 95 1013.8
20260901071529 71 196 0.0 0.0 0.00 0.00 0.00 94 1013.9
20260901070028 71 196 0.0 0.0 0.00 0.00 0.00 94 1013.9
20260901064519 72 197 0.0 0.0 0.00 0.00 0.00 93 1013.9
20260901063100 72 197 0.0 0.0 0.00 0.00 0.00 93 1013.8
20260901063001 72 197 0.0 0.0 0.00 0.00 0.00 93 1013.7
20260901061547 72 197 0.0 0.0 0.00 0.00 0.00 93 1013.6
20260901060039 72 196 0.0 0.0 0.00 0.00 0.00 94 1013.6
20260901054525 72 197 0.0 0.0 0.00 0.00 0.00 93 1013.8
20260901053015 72 196 0.0 0.0 0.00 0.00 0.00 92 1014.1
20260901051507 73 197 0.0 0.0 0.00 0.00 0.00 92 1014.2
20260901050049 73 197 0.0 0.0 0.00 0.00 0.00 91 1013.9
20260901044538 74 198 0.0 0.0 0.00 0.00 0.00 90 1013.9
20260901043032 74 197 0.0 0.0 0.00 0.00 0.00 89 1014.0
20260901041526 75 197 1.0 0.0 0.00 0.00 0.00 88 1013.8
20260901040009 75 198 0.0 0.0 0.00 0.00 0.00 88 1013.8
20260901034555 76 196 0.0 0.0 0.00 0.00 0.00 87 1013.7
20260901033046 77 197 0.0 0.0 0.00 0.00 0.00 84 1013.4
20260901031538 76 197 2.0 0.0 0.00 0.00 0.00 84 1013.0
20260901030123 76 200 2.0 0.0 0.00 0.00 0.00 85 1013.0
20260901024546 76 190 2.0 0.0 0.00 0.00 0.00 86 1013.0
20260901023036 76 192 3.0 0.0 0.00 0.00 0.00 87 1013.2
20260901021527 74 194 2.0 0.0 0.00 0.00 0.00 92 1013.0
20260901020012 74 225 1.0 0.0 0.00 0.00 0.00 93 1014.3
20260901014554 73 224 1.0 0.0 0.00 0.00 0.00 93 1014.7
20260901013105 73 229 0.0 0.0 0.00 0.00 0.00 92 1014.9
20260901011550 74 229 0.0 0.0 0.00 0.00 0.00 92 1015.1
20260901010042 74 229 0.0 0.0 0.00 0.00 0.00 91 1015.2
20260901004533 75 229 0.0 0.0 0.00 0.00 0.00 90 1015.0
20260901003024 76 229 0.0 0.0 0.00 0.00 0.00 88 1014.8
20260901001517 77 229 0.0 0.0 0.00 0.00 0.00 86 1014.8
20260901000008 78 229 0.0 0.0 0.00 0.00 0.00 84 1014.9
20260831234633 80 229 0.0 0.0 0.00 0.00 0.00 83 1015.0
20260831234502 80 229 0.0 0.0 0.00 0.00 0.00 82 1015.0
20260831233053 82 229 0.0 0.0 0.00 0.00 0.00 80 1014.8
20260831231540 83 229 0.0 0.0 0.00 0.00 0.00 77 1014.6
20260831230039 84 229 0.0 0.0 0.00 0.00 0.00 76 1014.6
20260831224519 84 244 1.0 0.0 0.00 0.00 0.00 72 1014.5
20260831223022 84 261 2.0 0.0 0.00 0.00 0.00 72 1014.3
20260831221505 84 242 1.0 0.0 0.00 0.00 0.00 74 1014.2
20260831220055 84 218 2.0 0.0 0.00 0.00 0.00 73 1014.1
20260831214557 85 187 4.0 0.0 0.00 0.00 0.00 71 1014.1
20260831213038 85 229 6.0 0.0 0.00 0.00 0.00 71 1013.9
20260831211532 85 232 2.0 0.0 0.00 0.00 0.00 75 1014.0
20260831210030 84 234 2.0 0.0 0.00 0.00 0.00 75 1014.2
20260831204510 84 209 3.0 0.0 0.00 0.00 0.00 74 1014.3
20260831203102 85 237 4.0 0.0 0.00 0.00 0.00 72 1014.5
20260831203003 85 224 4.0 0.0 0.00 0.00 0.00 73 1014.5
20260831201608 87 260 4.0 0.0 0.00 0.00 0.00 71 1014.4
20260831200041 86 238 4.0 0.0 0.00 0.00 0.00 70 1014.4
20260831194531 85 229 3.0 0.0 0.00 0.00 0.00 73 1014.6
20260831193035 86 207 5.0 0.0 0.00 0.00 0.00 67 1014.8
20260831191512 88 217 4.0 0.0 0.00 0.00 0.00 67 1014.9
20260831190007 87 222 4.0 0.0 0.00 0.00 0.00 71 1015.0
20260831184505 86 243 4.0 0.0 0.00 0.00 0.00 68 1015.3
20260831183100 87 213 4.0 0.0 0.00 0.00 0.00 68 1015.4
20260831181551 87 234 3.0 0.0 0.00 0.00 0.00 69 1015.6
20260831180040 88 290 4.0 0.0 0.00 0.00 0.00 66 1015.7
20260831174529 88 274 3.0 0.0 0.00 0.00 0.00 67 1015.8
20260831173020 86 228 4.0 0.0 0.00 0.00 0.00 69 1015.8
20260831171507 87 285 3.0 0.0 0.00 0.00 0.00 66 1016.1
20260831170053 87 227 3.0 0.0 0.00 0.00 0.00 68 1016.0
20260831164600 86 235 3.0 0.0 0.00 0.00 0.00 69 1016.2
20260831163028 86 233 4.0 0.0 0.00 0.00 0.00 68 1016.2
20260831161520 86 211 4.0 0.0 0.00 0.00 0.00 70 1016.2
20260831160005 85 203 3.0 0.0 0.00 0.00 0.00 71 1016.3
20260831154604 83 236 3.0 0.0 0.00 0.00 0.00 74 1016.4
20260831153035 83 207 3.0 0.0 0.00 0.00 0.00 74 1016.2